Regional Weather Roundup
Issued by NWS State College, PA

Home | Current Version | Previous Version | Text Only | Print | Product List | Glossary Off
Versions: 1 2 3 4 5 6 7 8 9 10 11 12 13 14 15 16 17 18 19 20 21 22 23 24 25 26 27 28 29 30 31 32 33 34 35 36 37 38 39 40 41 42 43 44 45 46 47 48 49 50

000
ASUS41 KCTP 240310
RWRCTP

REGIONAL WEATHER ROUNDUP
NATIONAL WEATHER SERVICE STATE COLLEGE PA
1100 PM EDT FRI JUN 23 2017

Note: "fair" indicates few or no clouds below 12,000 feet with no
significant weather and/or obstructions to visibility.

* = STATION THAT DOES NOT REPORT PRECIPITATION /E.G. RAIN...SNOW...ETC/
    THUNDER OR FOG.

PAZ002>004-007>009-013>016-020>023-029>032-240400-
WESTERN PENNSYLVANIA

CITY           SKY/WX    TMP DP  RH WIND       PRES   REMARKS
ERIE           CLOUDY    71  67  87 W13G23    29.65R
MEADVILLE      LGT RAIN  69  68  96 SW10      29.69R
FRANKLIN*      CLOUDY    66  63  88 SW7       29.71R
NEW CASTLE     CLOUDY    69  67  93 SW7       29.72R
BEAVER COUNTY  NOT AVBL
BUTLER*        CLOUDY    66  64  94 SW5       29.72R
PITTSBURGH INT LGT RAIN  68  68 100 CALM      29.71S
PITTSBURGH     LGT RAIN  68  65  90 SW5       29.71F
INDIANA*       CLOUDY    68  68 100 SW6       29.75F
LATROBE        LGT RAIN  68  68 100 CALM      29.73F
WASHINGTON CO* CLOUDY    66  64  94 CALM      29.74S
$$

PAZ004>006-010>012-017>019-024>028-033>037-041-042-045-046-049>053-240400-
CENTRAL PENNSYLVANIA

CITY           SKY/WX    TMP DP  RH WIND       PRES   REMARKS
BRADFORD       CLOUDY    67  67 100 W3        29.70F
DUBOIS         CLOUDY    67  64  90 SW7       29.71F
CLEARFIELD     LGT RAIN  69  68  96 SW7       29.71F
JOHNSTOWN      LGT RAIN  65  65 100 W7        29.76S
ALTOONA        LGT RAIN  69  68  96 CALM      29.74S
STATE COLLEGE  CLOUDY    69  67  96 SW6       29.70F
WILLIAMSPORT   CLOUDY    75  70  84 W5        29.64S
SELINSGROVE    LGT RAIN  74  72  93 SW5       29.68S
FT INDIANTOWN  CLOUDY    72  72 100 SW3       29.67F
CAPITAL CITY   CLOUDY    74  70  87 NW5       29.68F
HARRISBURG     CLOUDY    74  71  91 CALM      29.68S
YORK           CLOUDY    73  72  96 CALM      29.70S
$$

PAZ038>040-043-044-047-048-054-055-060>062-067>071-240400-
EASTERN PENNSYLVANIA

CITY           SKY/WX    TMP DP  RH WIND       PRES   REMARKS
SCRANTON       HVY RAIN  73  72  96 SW16G22   29.66R FOG
MOUNT POCONO   CLOUDY    70  70 100 SW13G23   29.70S
ALLENTOWN      PTCLDY    73  70  90 W3        29.66F
QUAKERTOWN*    PTCLDY    75  73  94 SW7       29.69S
READING        RAIN      75  73  93 W13G20    29.68R
LANCASTER      LGT RAIN  72  70  93 W10       29.69R
COATESVILLE    PTCLDY    77  73  88 S6        29.71S
POTTSTOWN      MOCLDY    74  73  97 SW3       29.69F
BLUE BELL      PTCLDY    79  72  78 SW7       29.69S
DOYLESTOWN     CLOUDY    75  74  96 CALM      29.66F
WILLOW GROVE   NOT AVBL
NORTH PHILA    PTCLDY    84  73  69 SW12G21   29.67F
PHILADELPHIA   PTCLDY    83  72  69 S13G22    29.67F
$$



USA.gov is the U.S. government's official web portal to all federal, state and local government web resources and services.